Location: Nebula Knoll Observatory
(43.6666°N, 71.0000°W)
Time: 09:43:03
(UTC-05:00)

Daily predictions for brighter satellites

Satellite Brightness Start Highest point End
(mag) Time Altitude Azimuth Time Altitude Azimuth Time Altitude Azimuth
USA 116 3.1 17:07:22 10° NNE 17:10:29 67° ESE 17:13:34 10° S
CZ-4 R/B 1.6 17:08:41 10° S 17:12:34 75° W 17:16:29 10° NNW
Cosmos 2237 Rocket 2.2 17:09:05 10° SSW 17:14:41 75° ESE 17:20:21 10° NNE
Cosmos 2369 Rocket 4.0 17:14:52 10° NNE 17:16:21 11° NE 17:17:49 10° NE
SJ-12 4.4 17:13:02 10° S 17:17:09 68° WSW 17:21:16 10° NNW
Cosmos 2151 3.0 17:13:57 10° S 17:18:05 59° E 17:22:14 10° NNE
YAOGAN 1 2.6 17:13:54 10° SSE 17:18:14 86° ENE 17:22:35 10° NNW
COSMO-SKYMED 1 3.3 17:14:36 10° NNE 17:18:31 32° E 17:22:25 10° SSE
BREEZE-M DEB (TANK) 3.3 17:17:41 10° SSW 17:19:52 25° SE 17:21:58 10° E
Cosmos 1300 2.6 17:16:11 10° N 17:20:03 79° E 17:23:52 10° SSE
Meteor 1-27 4.4 17:14:56 10° N 17:20:41 59° ENE 17:26:27 10° SSE
Thor Agena Rocket 3.6 17:15:36 10° NNE 17:20:50 71° ESE 17:25:59 10° S
AQUARIUS 4.5 17:18:05 10° S 17:22:33 74° WSW 17:27:05 10° NNW
SL-16 R/B 2.8 17:18:04 10° S 17:23:13 38° ESE 17:28:24 10° NE
MONITOR-E 4.4 17:20:51 10° SSE 17:23:56 51° ENE 17:27:01 10° N
Meteor 2-10 4.0 17:19:46 10° N 17:24:51 61° ENE 17:30:03 10° SSE
COSMOS 2428 4.2 17:20:05 10° WSW 17:25:16 34° NW 17:30:27 10° N
SPOT 3 Rocket 3.7 17:20:43 10° SSE 17:25:52 81° WSW 17:31:05 10° NNW
Cosmos 44 Rocket 4.3 17:22:18 10° SW 17:27:15 47° NW 17:32:06 10° NNE
CZ-3A R/B 3.0 17:24:48 10° NW 17:30:07 49° NNE 17:35:07 10° ESE
CZ-4C R/B 4.4 17:30:34 10° NNW 17:34:04 15° NNE 17:37:47 10° NE
Cosmos 2297 3.7 17:29:08 10° NNW 17:34:50 66° ENE 17:40:32 10° SE
SL-14 R/B 3.4 17:32:20 10° S 17:36:17 83° W 17:40:18 10° N
FREGAT/IRIS 4.2 17:34:23 10° ESE 17:36:23 16° ENE 17:38:23 10° NNE
Cosmos 1484 Rocket 2.7 17:34:17 10° SSE 17:38:13 78° ENE 17:42:15 10° N
Cosmos 304 Rocket 3.8 17:33:35 10° S 17:38:18 59° ESE 17:43:02 10° NNE
Resurs 01 Rocket 3.2 17:35:43 10° E 17:38:20 16° ENE 17:40:57 10° NNE
Cosmos 1340 Rocket 2.7 17:36:15 10° S 17:40:09 64° E 17:44:03 10° NNE
Cosmos 2279 Rocket 4.0 17:37:00 10° N 17:43:16 81° E 17:49:30 10° S
Meteor 1-28 Rocket 3.6 17:41:19 10° NNE 17:44:51 40° E 17:48:22 10° S
Lacrosse 4 Rocket 2.2 17:42:01 10° N 17:45:37 29° NE 17:48:48 12° ESE
Cosmos 1151 Rocket 4.0 17:41:58 10° NNW 17:46:07 50° W 17:50:17 10° SSW
METEOR-M 4.4 17:46:01 10° SE 17:51:05 46° ENE 17:56:12 10° N
IDEFIX/ARIANE 42P 4.4 17:48:06 10° SSW 17:52:51 36° W 17:57:41 10° NNW
Cosmos 1869 4.2 17:50:10 10° NNE 17:53:41 27° ENE 17:57:11 10° SE
Cosmos 540 Rocket 4.3 17:50:20 10° SW 17:55:21 51° WNW 18:00:24 10° N
Aureole 2 Rocket 3.5 17:51:42 10° SW 17:55:26 55° WNW 17:59:32 10° NNE
USA 215 3.4 17:53:29 11° ESE 17:59:45 57° NNE 18:06:08 10° NW
NOAA 12 4.1 17:54:43 10° SSE 17:59:51 58° ENE 18:05:02 10° N
Cosmos 773 Rocket 4.4 17:55:54 10° S 18:00:44 42° ESE 18:04:53 14° NE
Cosmos 2058 3.6 17:58:13 10° SSW 18:02:15 56° W 18:06:18 10° N
Nadezhda 4 Rocket 4.0 17:57:54 10° S 18:04:00 58° E 18:10:12 10° NNE
ATLAS 5 CENTAUR R/B 3.9 18:00:44 10° NNW 18:04:22 17° NNE 18:05:48 16° NE
Cosmos 1805 Rocket 3.5 18:01:23 10° S 18:05:51 89° E 18:10:21 10° N
Lacrosse 5 3.7 18:02:29 10° NW 18:05:57 18° N 18:08:06 14° NE
SKYMED 2 3.7 18:02:22 10° N 18:06:43 77° WNW 18:11:03 10° SSW
Cosmos 2242 Rocket 3.9 18:02:46 10° N 18:07:00 42° ENE 18:11:13 10° SSE
Cosmos 1461 3.0 18:04:56 10° SW 18:09:06 72° NW 18:12:04 18° NNE
Cosmos 1626 2.1 18:11:13 10° S 18:14:58 89° W 18:18:44 10° N
Aureole 1 Rocket 4.0 18:11:51 10° S 18:17:16 59° ESE 18:24:22 10° NNE
Sich 1 2.9 18:14:28 10° S 18:18:54 80° E 18:23:21 10° N
Cosmos 2219 Rocket 4.2 18:16:30 10° WSW 18:20:57 23° NW 18:25:25 10° N
Lacrosse 5 rocket 4.1 18:18:25 10° W 18:21:01 17° SW 18:23:41 10° SSW
Cosmos 1356 Rocket 3.4 18:18:18 10° SSW 18:22:17 78° W 18:26:18 10° N
Cosmos 1943 Rocket 3.9 18:19:02 10° N 18:21:10 15° NNE 18:21:10 15° NNE
ALOS 2.4 18:20:09 10° SE 18:24:36 46° ENE 18:29:05 10° N
Cosmos 1092 Rocket 4.0 18:20:07 10° S 18:26:21 62° E 18:32:36 10° NNE
Cosmos 2333 Rocket 4.1 18:23:03 10° WSW 18:27:43 26° NW 18:32:26 10° N
Cosmos 1603 3.9 18:22:38 10° S 18:27:58 47° ESE 18:30:07 32° ENE
Cosmos 1633 Rocket 3.0 18:24:50 10° S 18:29:14 90° W 18:33:40 10° N
FengYun 1-2 T 4.2 18:25:14 10° SSE 18:30:39 58° ENE 18:36:05 10° N
CENTAUR R/B 4.5 18:29:52 10° WNW 18:34:50 22° NNW 18:40:16 10° NNE
Cosmos 292 Rocket 3.9 18:30:21 10° S 18:34:55 50° ESE 18:35:33 46° E
Coronas F rocket 3.6 18:32:57 10° SSW 18:33:36 16° SSW 18:33:36 16° SSW
Cosmos 1455 2.8 18:32:00 10° NNW 18:35:44 56° W 18:39:28 10° S
USA 229 DEB 3.6 18:36:32 10° SSW 18:43:22 78° SE 18:47:09 30° NE
USA 229 3.6 18:36:38 10° SSW 18:43:28 77° ESE 18:47:12 30° NE
Abrixas 4.1 18:41:00 10° WNW 18:42:57 28° NW 18:42:57 28° NW
Cosmos 1242 Rocket 4.3 18:43:33 10° N 18:44:49 21° N 18:44:49 21° N
Cosmos 1184 Rocket 4.0 18:44:11 10° SSW 18:47:22 42° WNW 18:48:42 27° NNW
SJ-6B 3.7 18:45:11 10° S 18:49:11 53° W 18:53:16 10° NNW
Cosmos 2195 Rocket 4.4 18:43:35 10° S 18:49:34 61° E 18:55:38 10° NNE
Spot 2 Rocket 3.3 18:44:40 10° SSE 18:49:42 75° ENE 18:54:44 10° N
Cosmos 1862 Rocket 3.9 18:46:40 10° N 18:49:59 49° NNE 18:49:59 49° NNE
Orbus 7S? 4.5 18:47:25 10° NW 18:51:46 90° ESE 19:00:10 16° SE
Iridium 4 Rocket 3.1 18:49:30 10° S 18:53:57 75° W 18:57:11 17° N
SL-19 R/B 4.4 18:51:18 10° SSE 18:57:08 78° WSW 19:02:46 10° NNW
Cosmos 2237 Rocket 4.4 18:55:19 10° W 18:59:23 20° NW 19:03:29 10° N
Cosmos 2369 Rocket 2.5 18:56:13 10° NNW 19:01:00 49° NNE 19:01:00 49° NNE
H-2A ROCKET BODY 4.1 18:49:29 10° WSW 19:05:56 30° SSW 19:09:18 20° SSE
SL-16 R/B 3.6 19:02:14 10° WSW 19:07:21 34° NW 19:11:54 13° N
Cosmos 1417 Rocket 4.3 19:07:09 10° N 19:13:16 70° ENE 19:13:16 70° ENE
Resurs 01 Rocket 2.1 19:12:15 29° S 19:14:20 59° W 19:18:45 10° NNW
Cosmos 923 Rocket 4.3 19:10:29 10° SSW 19:15:39 63° WNW 19:17:00 46° N
Cosmos 1933 Rocket 4.1 19:12:32 10° SSW 19:16:30 57° WSW 19:16:30 57° WSW
Cosmos 1680 Rocket 3.6 19:16:50 10° SSW 19:22:02 72° WNW 19:22:05 72° WNW
Cosmos 1655 Rocket 3.9 19:16:54 10° S 19:23:18 83° E 19:24:06 69° NNE
Lacrosse 4 Rocket 3.3 19:20:48 10° NW 19:24:14 27° WSW 19:25:17 24° SW
CZ-4C R/B 3.8 19:18:43 10° NNW 19:23:28 31° NNE 19:23:28 31° NNE
NOSS 3-1 (C) 4.1 19:29:10 10° SSW 19:32:51 42° SSW 19:32:51 42° SSW
USA 215 3.9 19:40:52 39° S 19:42:48 50° SW 19:49:09 10° WNW
ATLAS 3B R/B 4.2 19:42:25 10° NNW 19:45:53 22° N 19:45:53 22° N
Lacrosse 5 4.0 19:45:45 10° NW 19:47:19 18° NNW 19:47:19 18° NNW
ATLAS 5 CENTAUR R/B 3.7 19:44:32 10° NNW 19:47:23 29° NNW 19:47:23 29° NNW
Cosmos 1943 Rocket 4.3 20:01:23 10° NNW 20:02:44 18° NNW 20:02:44 18° NNW
